TimePST,TemperatureF,Dew PointF,Humidity,Sea Level PressureIn,VisibilityMPH,Wind Direction,Wind SpeedMPH,Gust SpeedMPH,PrecipitationIn,Events,Conditions,WindDirDegrees,DateUTC
12:15 AM,41.0,37.4,87,30.26,10.0,Calm,Calm,-,N/A,,Clear,0,2013-01-01 08:15:00
12:35 AM,41.0,37.4,87,30.23,10.0,SSE,3.5,-,N/A,,Clear,160,2013-01-01 08:35:00
1:15 AM,41.0,37.4,87,30.24,10.0,NW,3.5,-,N/A,,Clear,320,2013-01-01 09:15:00
1:35 AM,41.0,39.2,93,30.25,10.0,North,3.5,-,N/A,,Partly Cloudy,10,2013-01-01 09:35:00
1:50 AM,41.0,39.2,93,30.25,10.0,NNE,3.5,-,N/A,,Mostly Cloudy,30,2013-01-01 09:50:00
2:15 AM,41.0,39.2,93,30.25,10.0,Calm,Calm,-,N/A,,Overcast,0,2013-01-01 10:15:00
2:35 AM,41.0,37.4,87,30.24,10.0,South,4.6,-,N/A,,Overcast,190,2013-01-01 10:35:00
2:50 AM,41.0,37.4,87,30.24,10.0,SSE,3.5,-,N/A,,Mostly Cloudy,150,2013-01-01 10:50:00
3:15 AM,39.2,37.4,93,30.25,10.0,Calm,Calm,-,N/A,,Partly Cloudy,0,2013-01-01 11:15:00
3:35 AM,41.0,37.4,87,30.24,10.0,Calm,Calm,-,N/A,,Mostly Cloudy,0,2013-01-01 11:35:00
3:55 AM,41.0,39.2,93,30.24,10.0,Calm,Calm,-,N/A,,Overcast,0,2013-01-01 11:55:00
4:15 AM,41.0,39.2,93,30.25,10.0,ENE,3.5,-,N/A,,Overcast,70,2013-01-01 12:15:00
4:35 AM,41.0,39.2,93,30.25,10.0,Calm,Calm,-,N/A,,Overcast,0,2013-01-01 12:35:00
4:55 AM,41.0,39.2,93,30.25,10.0,WSW,3.5,-,N/A,,Overcast,250,2013-01-01 12:55:00
5:10 AM,41.0,39.2,93,30.25,10.0,Calm,Calm,-,N/A,,Overcast,0,2013-01-01 13:10:00
5:35 AM,41.0,39.2,93,30.25,10.0,Calm,Calm,-,N/A,,Overcast,0,2013-01-01 13:35:00
5:55 AM,42.8,39.2,87,30.26,10.0,Calm,Calm,-,N/A,,Overcast,0,2013-01-01 13:55:00
6:15 AM,42.8,37.4,81,30.26,10.0,Calm,Calm,-,N/A,,Overcast,0,2013-01-01 14:15:00
6:35 AM,42.8,37.4,81,30.26,10.0,Calm,Calm,-,N/A,,Overcast,0,2013-01-01 14:35:00
6:50 AM,42.8,37.4,81,30.26,10.0,Calm,Calm,-,N/A,,Mostly Cloudy,0,2013-01-01 14:50:00
6:55 AM,42.8,37.4,81,30.26,10.0,WSW,3.5,-,N/A,,Overcast,240,2013-01-01 14:55:00
7:47 AM,42.8,37.4,81,30.25,10.0,WNW,4.6,-,N/A,,Scattered Clouds,290,2013-01-01 15:47:00
8:47 AM,44.6,37.4,76,30.27,10.0,NNE,9.2,-,N/A,,Partly Cloudy,20,2013-01-01 16:47:00
9:47 AM,44.6,35.6,71,30.28,10.0,NNE,8.1,-,N/A,,Partly Cloudy,33,2013-01-01 17:47:00
10:47 AM,46.4,35.6,66,30.28,10.0,East,4.6,-,N/A,,Partly Cloudy,80,2013-01-01 18:47:00
11:47 AM,48.2,35.6,62,30.26,10.0,Calm,Calm,-,N/A,,Partly Cloudy,0,2013-01-01 19:47:00
12:47 PM,50.0,35.6,58,30.24,10.0,NE,5.8,-,N/A,,Partly Cloudy,40,2013-01-01 20:47:00
1:55 PM,50.0,37.4,62,30.23,20.0,NE,13.8,-,N/A,,Mostly Cloudy,40,2013-01-01 21:55:00
2:47 PM,50.0,35.6,58,30.23,20.0,NE,11.5,-,N/A,,Partly Cloudy,40,2013-01-01 22:47:00
3:54 PM,51.8,37.4,58,30.23,20.0,NE,6.9,-,N/A,,Clear,40,2013-01-01 23:54:00
4:49 PM,50.0,39.2,66,30.23,20.0,ENE,4.6,-,N/A,,Clear,60,2013-01-02 00:49:00
5:53 PM,48.2,39.2,71,30.23,15.0,East,6.9,-,N/A,,Clear,90,2013-01-02 01:53:00
6:49 PM,46.4,35.6,66,30.23,10.0,South,3.5,-,N/A,,Clear,190,2013-01-02 02:49:00
7:52 PM,44.6,35.6,71,30.26,10.0,South,3.5,-,N/A,,Clear,190,2013-01-02 03:52:00
8:55 PM,42.8,39.2,87,30.26,10.0,Calm,Calm,-,N/A,,Clear,0,2013-01-02 04:55:00
9:10 PM,41.0,37.4,87,30.26,10.0,Calm,Calm,-,N/A,,Clear,0,2013-01-02 05:10:00
9:35 PM,41.0,35.6,81,30.25,10.0,Calm,Calm,-,N/A,,Clear,0,2013-01-02 05:35:00
9:55 PM,41.0,35.6,81,30.26,10.0,Calm,Calm,-,N/A,,Clear,0,2013-01-02 05:55:00
10:10 PM,39.2,35.6,87,30.26,10.0,Calm,Calm,-,N/A,,Clear,0,2013-01-02 06:10:00
10:35 PM,39.2,35.6,87,30.26,10.0,SE,4.6,-,N/A,,Clear,130,2013-01-02 06:35:00
10:55 PM,39.2,35.6,87,30.26,10.0,South,4.6,-,N/A,,Clear,170,2013-01-02 06:55:00
11:10 PM,39.2,33.8,81,30.25,10.0,Calm,Calm,-,N/A,,Clear,0,2013-01-02 07:10:00
11:35 PM,37.4,33.8,87,30.25,10.0,Calm,Calm,-,N/A,,Clear,0,2013-01-02 07:35:00
11:55 PM,37.4,33.8,87,30.26,10.0,Calm,Calm,-,N/A,,Clear,0,2013-01-02 07:55:00